TimeCDT,TemperatureF,Dew PointF,Humidity,Sea Level PressureIn,VisibilityMPH,Wind Direction,Wind SpeedMPH,Gust SpeedMPH,PrecipitationIn,Events,Conditions,WindDirDegrees,DateUTC
12:12 AM,36.5,22.8,58,30.05,10.0,WSW,5.8,-,N/A,,Overcast,240,2012-10-10 05:12:00
12:32 AM,36.5,23.0,58,30.06,10.0,WSW,6.9,-,N/A,,Overcast,240,2012-10-10 05:32:00
12:52 AM,36.5,23.4,59,30.06,10.0,WSW,5.8,-,N/A,,Overcast,250,2012-10-10 05:52:00
1:12 AM,36.0,23.4,60,30.06,10.0,WSW,5.8,-,N/A,,Overcast,250,2012-10-10 06:12:00
1:32 AM,36.3,23.9,61,30.06,10.0,WSW,5.8,-,N/A,,Overcast,250,2012-10-10 06:32:00
1:52 AM,34.9,23.5,63,30.06,10.0,WSW,4.6,-,N/A,,Overcast,250,2012-10-10 06:52:00
2:12 AM,33.6,23.0,65,30.06,10.0,West,5.8,-,N/A,,Mostly Cloudy,260,2012-10-10 07:12:00
2:32 AM,31.5,22.1,68,30.06,10.0,West,6.9,-,N/A,,Scattered Clouds,270,2012-10-10 07:32:00
2:52 AM,30.4,21.6,70,30.07,10.0,West,8.1,-,N/A,,Clear,280,2012-10-10 07:52:00
3:12 AM,30.0,21.7,71,30.07,10.0,West,8.1,-,N/A,,Clear,270,2012-10-10 08:12:00
3:32 AM,29.3,21.7,73,30.07,10.0,West,6.9,-,N/A,,Scattered Clouds,270,2012-10-10 08:32:00
3:52 AM,29.5,22.6,76,30.07,10.0,West,5.8,-,N/A,,Scattered Clouds,270,2012-10-10 08:52:00
4:12 AM,29.3,23.4,78,30.07,10.0,West,6.9,-,N/A,,Clear,270,2012-10-10 09:12:00
4:32 AM,28.2,22.8,80,30.07,10.0,West,6.9,-,N/A,,Clear,260,2012-10-10 09:32:00
4:52 AM,27.0,22.3,83,30.08,10.0,West,5.8,-,N/A,,Clear,270,2012-10-10 09:52:00
5:12 AM,26.4,22.5,85,30.09,10.0,West,6.9,-,N/A,,Clear,270,2012-10-10 10:12:00
5:32 AM,27.3,23.4,85,30.09,10.0,West,5.8,-,N/A,,Clear,270,2012-10-10 10:32:00
5:52 AM,26.6,23.0,86,30.09,10.0,West,5.8,-,N/A,,Clear,260,2012-10-10 10:52:00
6:12 AM,24.6,21.7,89,30.10,10.0,WSW,5.8,-,N/A,,Clear,250,2012-10-10 11:12:00
6:32 AM,24.6,21.7,89,30.10,10.0,WSW,3.5,-,N/A,,Clear,250,2012-10-10 11:32:00
6:52 AM,24.8,21.9,89,30.10,10.0,WSW,6.9,-,N/A,,Clear,240,2012-10-10 11:52:00
7:32 AM,25.0,22.1,89,30.11,10.0,WSW,4.6,-,N/A,,Clear,250,2012-10-10 12:32:00
7:52 AM,24.6,21.9,89,30.11,7.0,WSW,5.8,-,N/A,,Clear,240,2012-10-10 12:52:00
8:12 AM,27.5,24.8,90,30.12,7.0,SSW,5.8,-,N/A,,Clear,210,2012-10-10 13:12:00
8:32 AM,30.2,26.2,85,30.12,7.0,SW,5.8,-,N/A,,Scattered Clouds,220,2012-10-10 13:32:00
8:52 AM,31.8,27.0,82,30.13,10.0,SSW,5.8,-,N/A,,Scattered Clouds,210,2012-10-10 13:52:00
9:12 AM,34.2,28.0,78,30.13,10.0,SSW,8.1,-,N/A,,Clear,200,2012-10-10 14:12:00
9:32 AM,36.3,28.4,73,30.13,10.0,SW,8.1,-,N/A,,Scattered Clouds,220,2012-10-10 14:32:00
9:52 AM,37.0,28.4,71,30.13,10.0,SW,9.2,-,N/A,,Overcast,230,2012-10-10 14:52:00
10:12 AM,40.3,28.6,63,30.12,10.0,SW,6.9,-,N/A,,Scattered Clouds,230,2012-10-10 15:12:00
10:32 AM,41.4,28.6,60,30.12,10.0,SW,9.2,-,N/A,,Clear,230,2012-10-10 15:32:00
10:52 AM,44.2,28.6,54,30.12,10.0,WSW,9.2,-,N/A,,Clear,240,2012-10-10 15:52:00
11:12 AM,46.8,27.5,47,30.11,10.0,WSW,11.5,-,N/A,,Clear,240,2012-10-10 16:12:00
11:32 AM,48.0,26.4,43,30.11,10.0,SW,11.5,17.3,N/A,,Clear,230,2012-10-10 16:32:00
11:52 AM,49.5,24.3,37,30.10,10.0,SW,13.8,17.3,N/A,,Scattered Clouds,230,2012-10-10 16:52:00
12:12 PM,50.5,22.5,33,30.10,10.0,WSW,13.8,18.4,N/A,,Scattered Clouds,240,2012-10-10 17:12:00
12:32 PM,51.8,21.2,30,30.09,10.0,WSW,11.5,18.4,N/A,,Clear,240,2012-10-10 17:32:00
12:52 PM,52.7,20.8,29,30.09,10.0,WSW,13.8,17.3,N/A,,Scattered Clouds,250,2012-10-10 17:52:00
1:12 PM,52.5,19.6,27,30.08,10.0,SW,18.4,21.9,N/A,,Clear,230,2012-10-10 18:12:00
1:32 PM,54.0,20.7,27,30.07,10.0,WSW,13.8,21.9,N/A,,Scattered Clouds,250,2012-10-10 18:32:00
1:52 PM,53.1,20.3,28,30.06,10.0,SW,15.0,19.6,N/A,,Scattered Clouds,230,2012-10-10 18:52:00
2:12 PM,54.0,21.0,28,30.05,10.0,WSW,11.5,21.9,N/A,,Scattered Clouds,240,2012-10-10 19:12:00
2:32 PM,54.7,21.2,27,30.03,10.0,SW,9.2,-,N/A,,Mostly Cloudy,220,2012-10-10 19:32:00
2:52 PM,55.4,21.0,26,30.03,10.0,SW,9.2,-,N/A,,Mostly Cloudy,230,2012-10-10 19:52:00
3:12 PM,56.3,19.6,24,30.01,10.0,WSW,13.8,18.4,N/A,,Mostly Cloudy,240,2012-10-10 20:12:00
3:32 PM,55.8,19.9,25,30.01,10.0,WSW,12.7,17.3,N/A,,Mostly Cloudy,250,2012-10-10 20:32:00
3:52 PM,55.8,19.6,24,30.00,10.0,WSW,11.5,17.3,N/A,,Mostly Cloudy,250,2012-10-10 20:52:00
4:12 PM,55.2,19.6,25,29.99,10.0,SW,13.8,-,N/A,,Mostly Cloudy,230,2012-10-10 21:12:00
4:32 PM,56.8,20.5,24,29.97,10.0,SW,11.5,-,N/A,,Scattered Clouds,220,2012-10-10 21:32:00
4:52 PM,56.3,20.5,25,29.96,10.0,WSW,11.5,-,N/A,,Scattered Clouds,240,2012-10-10 21:52:00
5:12 PM,56.5,20.3,24,29.94,10.0,SW,10.4,-,N/A,,Scattered Clouds,220,2012-10-10 22:12:00
5:32 PM,56.5,20.7,25,29.94,10.0,South,8.1,-,N/A,,Mostly Cloudy,190,2012-10-10 22:32:00
5:52 PM,56.3,21.6,26,29.93,10.0,SSW,6.9,-,N/A,,Mostly Cloudy,200,2012-10-10 22:52:00
6:12 PM,57.2,21.7,25,29.93,10.0,South,3.5,-,N/A,,Scattered Clouds,190,2012-10-10 23:12:00
6:32 PM,53.2,21.7,29,29.92,7.0,South,8.1,-,N/A,,Scattered Clouds,170,2012-10-10 23:32:00
6:52 PM,50.5,21.7,32,29.91,7.0,SSE,8.1,-,N/A,,Scattered Clouds,150,2012-10-10 23:52:00
7:12 PM,49.1,22.6,35,29.91,5.0,SE,6.9,-,N/A,,Haze,140,2012-10-11 00:12:00
7:32 PM,47.8,23.5,39,29.90,10.0,SSE,10.4,-,N/A,,Scattered Clouds,150,2012-10-11 00:32:00
7:52 PM,48.7,24.6,39,29.89,10.0,SSE,10.4,-,N/A,,Scattered Clouds,160,2012-10-11 00:52:00
8:12 PM,49.6,25.2,38,29.88,10.0,South,10.4,-,N/A,,Clear,170,2012-10-11 01:12:00
8:32 PM,49.3,25.3,39,29.88,10.0,SSE,10.4,-,N/A,,Scattered Clouds,160,2012-10-11 01:32:00
8:52 PM,49.3,25.7,40,29.87,10.0,SSE,9.2,-,N/A,,Clear,160,2012-10-11 01:52:00
9:12 PM,48.9,26.1,41,29.86,10.0,SSE,11.5,-,N/A,,Clear,160,2012-10-11 02:12:00
9:32 PM,48.7,26.4,42,29.86,10.0,SSE,10.4,-,N/A,,Clear,160,2012-10-11 02:32:00
9:52 PM,48.7,27.1,43,29.85,7.0,SSE,10.4,-,N/A,,Mostly Cloudy,160,2012-10-11 02:52:00
10:12 PM,49.1,27.5,43,29.84,10.0,South,11.5,-,N/A,,Overcast,170,2012-10-11 03:12:00
10:32 PM,52.2,28.8,41,29.83,10.0,South,15.0,-,N/A,,Overcast,180,2012-10-11 03:32:00
10:52 PM,53.2,28.8,39,29.82,10.0,South,16.1,-,N/A,,Overcast,190,2012-10-11 03:52:00
11:12 PM,54.7,29.1,38,29.81,10.0,South,16.1,-,N/A,,Scattered Clouds,190,2012-10-11 04:12:00
11:32 PM,55.0,29.1,37,29.81,10.0,South,18.4,23.0,N/A,,Scattered Clouds,190,2012-10-11 04:32:00
11:52 PM,54.5,29.5,38,29.80,10.0,SSW,16.1,21.9,N/A,,Clear,200,2012-10-11 04:52:00